Wetbulb
49.21 50.08 49.76 48.57 48.85 48.94 48.48 48.30 49.40 50.17 52.53 52.83 52.24 51.02 48.56 46.58 45.16 44.73 43.67 43.00 42.88 42.16
48.60 48.50 48.93 47.65 48.13 49.10 47.87 47.16 47.91 48.84 49.86 49.90 49.92 49.85 48.41 46.74 44.31 44.33 43.12 43.11 42.63 42.04
47.39 47.86 47.86 47.40 47.03 47.28 47.19 46.26 44.94 46.56 47.80 47.91 47.97 47.81 47.25 46.15 44.85 43.82 43.63 43.47 42.19 41.51
46.06 46.53 46.58 47.10 46.80 46.48 45.06 45.33 43.68 42.97 44.68 45.44 45.68 46.31 46.16 45.86 44.62 43.22 43.25 43.04 41.45 40.19
45.07 45.07 45.22 45.76 45.27 44.27 44.57 41.91 42.79 41.32 41.58 43.07 43.23 44.02 44.76 43.89 43.19 42.13 41.21 39.86 38.46 38.01
43.78 43.86 44.66 44.70 43.53 42.95 42.16 40.70 38.07 38.72 38.84 39.19 40.45 40.80 42.02 42.36 41.48 41.08 40.91 39.51 37.21 34.94
43.58 43.98 44.24 43.08 42.32 41.56 39.86 37.75 35.29 35.63 35.75 34.99 35.77 36.39 37.57 38.49 38.15 38.23 37.30 35.66 35.35 33.20
42.88 41.99 41.69 40.04 38.78 37.84 36.10 35.09 33.86 32.46 32.01 32.13 34.11 34.58 35.14 35.62 35.74 35.06 33.11 32.61 32.48 31.54
39.32 38.14 37.47 37.25 36.58 35.54 34.07 32.64 31.62 30.94 30.67 30.76 31.97 34.54 36.80 35.26 33.93 33.31 32.16 30.20 29.60 29.33
34.98 34.81 35.66 35.25 34.93 34.09 32.52 30.93 30.39 29.81 29.24 30.36 31.38 34.46 36.27 35.81 32.05 31.84 31.43 30.23 28.66 28.69
32.43 32.91 32.14 31.48 32.34 30.47 29.96 29.04 28.03 27.47 27.43 29.99 29.73 33.58 36.11 35.25 30.82 30.58 30.36 29.46 28.99 29.29
30.67 30.80 30.01 30.13 29.07 26.87 25.77 24.99 24.69 26.05 25.95 29.17 29.02 32.97 35.42 34.58 29.20 28.98 28.54 28.59 29.65 30.07
29.94 28.02 27.59 28.41 26.10 24.56 25.49 27.19 29.22 29.54 29.64 29.37 29.12 32.42 34.67 34.16 29.06 27.32 26.78 27.70 28.59 29.98
27.61 25.56 25.61 25.34 29.06 29.59 29.57 28.61 28.33 28.01 28.09 28.36 28.63 30.31 34.37 34.69 28.80 27.25 26.64 26.91 27.60 29.58
MSLP
1014.82 1015.33 1015.75 1016.15 1016.63 1016.97 1017.31 1017.74 1018.19 1018.50 1018.49 1018.71 1018.95 1019.26 1019.80 1020.48 1021.02 1021.41 1021.65 1021.91 1022.61 1022.70
1014.68 1014.97 1015.29 1015.63 1015.97 1016.32 1016.51 1016.69 1017.20 1017.74 1018.14 1018.24 1018.38 1018.53 1018.90 1019.44 1020.07 1020.26 1020.75 1021.26 1021.89 1022.06
1014.20 1014.46 1014.71 1015.01 1015.23 1015.47 1015.85 1016.27 1016.46 1017.01 1017.49 1017.73 1017.80 1017.94 1018.36 1018.72 1019.14 1019.55 1019.82 1020.31 1020.85 1021.20
1013.76 1013.86 1014.09 1014.28 1014.47 1014.81 1015.26 1015.62 1016.03 1016.29 1016.68 1017.05 1017.29 1017.33 1017.70 1018.00 1018.23 1018.68 1019.04 1019.24 1019.79 1020.12
1013.32 1013.55 1013.72 1013.71 1013.75 1014.12 1014.48 1014.83 1015.11 1015.58 1015.93 1016.21 1016.58 1016.77 1016.85 1017.10 1017.42 1017.81 1018.24 1018.56 1019.07 1019.27
1012.92 1013.01 1012.97 1013.07 1013.12 1013.53 1013.94 1014.22 1014.91 1015.28 1015.57 1015.62 1015.83 1016.09 1016.20 1016.33 1016.72 1017.11 1017.51 1018.02 1018.33 1018.77
1012.33 1012.23 1012.30 1012.71 1012.78 1013.01 1013.53 1013.84 1014.29 1014.81 1015.16 1015.32 1015.48 1015.74 1015.87 1015.99 1016.26 1016.68 1017.10 1017.53 1018.04 1018.61
1011.88 1012.05 1012.28 1012.52 1012.42 1012.61 1013.02 1013.39 1013.87 1014.32 1014.65 1014.96 1015.30 1015.58 1015.80 1015.94 1015.98 1016.33 1016.90 1017.32 1017.72 1018.19
1011.78 1011.83 1011.91 1011.91 1012.06 1012.36 1012.74 1013.23 1013.67 1014.19 1014.53 1014.77 1014.80 1014.93 1015.19 1015.49 1015.78 1016.04 1016.45 1016.89 1017.49 1018.02
1011.66 1011.63 1011.66 1011.73 1011.89 1012.05 1012.43 1012.88 1013.37 1013.70 1014.07 1014.36 1014.56 1014.62 1014.88 1015.32 1015.58 1015.87 1016.18 1016.68 1017.32 1017.99
1011.49 1011.29 1011.31 1011.70 1011.99 1012.28 1012.51 1012.73 1013.04 1013.36 1013.64 1013.98 1014.11 1014.30 1014.62 1014.97 1015.41 1015.64 1015.88 1016.38 1016.91 1017.60
1011.75 1011.49 1011.42 1011.42 1011.53 1011.83 1012.27 1012.76 1013.11 1013.20 1013.43 1013.61 1013.81 1014.01 1014.26 1014.88 1015.26 1015.49 1015.94 1016.40 1016.96 1017.52
1011.69 1011.79 1011.67 1011.43 1011.74 1012.09 1012.06 1011.90 1012.38 1012.93 1013.27 1013.52 1013.65 1013.93 1014.18 1014.46 1015.08 1015.55 1016.07 1016.49 1016.98 1017.36
1012.02 1012.26 1012.07 1011.64 1011.70 1011.81 1012.12 1012.23 1012.33 1012.86 1013.00 1013.09 1013.26 1013.46 1014.01 1014.24 1015.07 1015.48 1016.11 1016.66 1017.35 1017.55
Wind_Speed
9 7 8 9 7 8 9 8 10 12 13 13 13 12 14 11 12 14 13 15 13 9
7 7 8 8 7 8 9 8 11 12 14 11 11 13 13 11 14 13 13 13 13 10
8 7 7 7 9 9 9 9 10 12 13 12 12 12 13 11 12 13 11 11 14 13
7 8 7 9 8 9 7 10 10 11 12 13 13 13 13 13 12 15 14 14 14 15
7 7 8 9 8 8 10 8 11 11 12 12 13 12 14 14 12 15 14 14 13 15
8 8 11 10 7 7 7 8 7 8 11 11 12 12 13 13 12 13 13 13 14 13
10 10 9 7 7 7 7 8 8 8 9 9 9 10 10 10 10 10 9 9 10 10
8 6 6 7 7 7 7 7 7 7 7 7 8 7 9 10 10 10 9 8 8 9
6 7 8 7 7 7 7 7 7 7 7 7 6 12 17 12 10 11 12 11 9 9
7 7 7 7 7 7 8 7 7 7 7 8 7 14 17 16 7 9 9 10 10 10
6 6 4 4 6 4 4 6 5 6 6 6 6 13 16 15 6 7 9 11 11 11
4 5 4 6 6 4 4 3 4 3 5 7 5 13 15 14 6 6 8 9 11 12
4 4 5 4 4 2 2 4 4 4 4 4 4 12 16 15 5 7 6 7 9 17
4 4 4 3 2 3 2 3 4 4 3 5 6 9 17 19 5 6 6 6 6 6
Wind_Direction
187 196 203 197 192 201 200 203 201 212 213 211 201 194 192 198 203 206 207 203 209 200
201 196 201 197 197 203 198 189 195 204 213 209 203 198 190 196 201 201 199 205 204 205
210 211 205 198 208 204 201 192 186 198 209 211 207 198 197 200 203 202 202 203 200 205
222 217 213 216 216 209 193 192 193 193 200 208 211 203 201 206 198 203 204 202 202 204
225 222 227 226 217 197 205 193 193 190 197 202 208 207 206 204 199 200 202 200 198 202
229 223 231 233 215 204 201 195 193 192 201 200 203 204 208 204 203 205 205 201 197 193
237 233 232 235 218 207 199 192 189 198 205 202 198 205 206 204 194 198 196 188 191 181
245 229 232 233 220 207 199 196 190 189 199 194 198 206 203 204 196 188 178 173 172 174
244 230 230 230 221 206 204 195 184 202 200 201 208 211 210 198 196 191 185 177 172 154
239 236 236 232 215 209 198 180 199 197 190 209 214 214 212 203 196 190 188 177 165 163
267 244 231 218 227 206 181 189 185 190 191 202 209 215 213 196 192 192 186 177 167 159
269 255 233 221 204 177 152 159 175 177 180 198 202 210 207 190 177 177 172 164 166 170
279 255 240 211 181 183 158 171 154 157 174 177 180 204 205 191 177 164 157 153 170 173
316 277 251 168 162 158 138 131 142 155 164 171 177 195 206 187 173 158 149 158 167 178